When you browse on this site, cookies collect data to enhance your experience and personalize the content and advertising you see.
Visit our Privacy Policy to learn more. By continuing to use the site, you agree to this use of cookies and data.
  • In Austria
  • List of Countries
  • For 7 days
  • Water Temperature
  • Satellite Maps
  • Weather Map
  • News
  • Weather Widgets
  • user-avatar
    Login

    Hourly Weather Mingachevir

    Today, 24 March, Sunday

    Time Temperature Precipitation Wind Pressure Humidity
    00:00 +11°C° 0 mm 1 mps 750 mmHg 43%
    01:00 +11°C° 0 mm 1 mps 750 mmHg 45%
    02:00 +10°C° 0 mm 1 mps 749 mmHg 48%
    03:00 +10°C° 0 mm 1 mps 749 mmHg 44%
    04:00 +9°C° 0 mm 2 mps 749 mmHg 43%
    05:00 +8°C° 0 mm 2 mps 749 mmHg 43%
    06:00 +8°C° 0 mm 2 mps 749 mmHg 43%
    07:00 +9°C° 0 mm 3 mps 749 mmHg 40%
    08:00 +11°C° 0 mm 3 mps 749 mmHg 36%
    09:00 +12°C° 0 mm 3 mps 748 mmHg 35%
    10:00 +14°C° 0 mm 2 mps 748 mmHg 34%
    11:00 +15°C° 0 mm 2 mps 748 mmHg 34%
    12:00 +15°C° 0 mm 2 mps 748 mmHg 33%
    13:00 +16°C° 0 mm 2 mps 748 mmHg 33%
    14:00 +16°C° 0 mm 2 mps 748 mmHg 34%
    15:00 +17°C° 0 mm 2 mps 748 mmHg 34%
    16:00 +16°C° 0 mm 2 mps 748 mmHg 38%
    17:00 +14°C° 0 mm 3 mps 748 mmHg 42%
    18:00 +13°C° 0 mm 3 mps 749 mmHg 46%
    19:00 +12°C° 0 mm 4 mps 749 mmHg 47%
    20:00 +12°C° 0 mm 5 mps 749 mmHg 48%
    21:00 +10°C° 0 mm 6 mps 750 mmHg 49%
    22:00 +9°C° 0 mm 6 mps 750 mmHg 50%
    23:00 +9°C° 0 mm 6 mps 750 mmHg 51%

    Tomorrow, 25 March, Monday

    Time Temperature Precipitation Wind Pressure Humidity
    00:00 +9°C° 0 mm 6 mps 751 mmHg 52%
    01:00 +8°C° 0 mm 6 mps 751 mmHg 52%
    02:00 +8°C° 0 mm 6 mps 751 mmHg 53%
    03:00 +8°C° 0 mm 5 mps 751 mmHg 54%
    04:00 +8°C° 0 mm 5 mps 751 mmHg 53%
    05:00 +7°C° 0 mm 4 mps 751 mmHg 53%
    06:00 +7°C° 0 mm 4 mps 751 mmHg 53%
    07:00 +8°C° 0 mm 3 mps 751 mmHg 52%
    08:00 +9°C° 0 mm 3 mps 751 mmHg 52%
    09:00 +9°C° 0 mm 2 mps 751 mmHg 52%
    10:00 +9°C° 0.2 mm 2 mps 751 mmHg 56%
    11:00 +9°C° 0.2 mm 3 mps 751 mmHg 61%
    12:00 +9°C° 0.2 mm 3 mps 751 mmHg 66%
    13:00 +8°C° 0.2 mm 5 mps 751 mmHg 66%
    14:00 +8°C° 0.2 mm 6 mps 751 mmHg 65%
    15:00 +8°C° 0.2 mm 7 mps 750 mmHg 65%
    16:00 +6°C° 0.1 mm 7 mps 751 mmHg 67%
    17:00 +6°C° 0.1 mm 7 mps 751 mmHg 69%
    18:00 +5°C° 0.1 mm 7 mps 752 mmHg 71%
    19:00 +5°C° 0.2 mm 6 mps 752 mmHg 72%
    20:00 +5°C° 0.2 mm 6 mps 753 mmHg 74%
    21:00 +5°C° 0.2 mm 6 mps 753 mmHg 75%
    22:00 +5°C° 0.3 mm 6 mps 753 mmHg 75%
    23:00 +6°C° 0.3 mm 5 mps 753 mmHg 76%

    Day after tomorrow, 26 March, Tuesday

    Time Temperature Precipitation Wind Pressure Humidity
    00:00 +6°C° 0.3 mm 5 mps 753 mmHg 76%
    01:00 +5°C° 0.1 mm 4 mps 753 mmHg 77%
    02:00 +5°C° 0.1 mm 4 mps 753 mmHg 78%
    03:00 +5°C° 0.1 mm 3 mps 753 mmHg 79%
    04:00 +5°C° 0 mm 3 mps 753 mmHg 81%
    05:00 +5°C° 0 mm 3 mps 754 mmHg 82%
    06:00 +5°C° 0 mm 2 mps 754 mmHg 83%
    07:00 +5°C° 0 mm 3 mps 754 mmHg 79%
    08:00 +7°C° 0 mm 3 mps 754 mmHg 75%
    09:00 +8°C° 0 mm 3 mps 754 mmHg 71%
    10:00 +9°C° 0 mm 3 mps 754 mmHg 67%
    11:00 +10°C° 0 mm 4 mps 753 mmHg 62%
    12:00 +11°C° 0 mm 4 mps 753 mmHg 58%
    13:00 +12°C° 0 mm 4 mps 753 mmHg 57%
    14:00 +12°C° 0 mm 4 mps 752 mmHg 57%
    15:00 +13°C° 0 mm 5 mps 752 mmHg 56%
    16:00 +12°C° 0 mm 4 mps 752 mmHg 59%
    17:00 +11°C° 0 mm 4 mps 752 mmHg 62%
    18:00 +10°C° 0 mm 3 mps 752 mmHg 66%
    19:00 +10°C° 0 mm 3 mps 752 mmHg 68%
    20:00 +9°C° 0 mm 2 mps 752 mmHg 71%
    21:00 +10°C° 0 mm 1 mps 752 mmHg 73%
    22:00 +10°C° 0 mm 1 mps 752 mmHg 75%
    23:00 +9°C° 0 mm 1 mps 752 mmHg 77%

    27 March, Wednesday

    Time Temperature Precipitation Wind Pressure Humidity
    00:00 +9°C° 0 mm 1 mps 751 mmHg 79%
    01:00 +9°C° 0 mm 1 mps 751 mmHg 80%
    02:00 +8°C° 0 mm 1 mps 751 mmHg 82%
    03:00 +8°C° 0 mm 1 mps 750 mmHg 84%
    04:00 +8°C° 0 mm 1 mps 750 mmHg 84%
    05:00 +8°C° 0 mm 1 mps 750 mmHg 83%
    06:00 +8°C° 0 mm 1 mps 751 mmHg 83%
    07:00 +9°C° 0 mm 1 mps 750 mmHg 76%
    08:00 +11°C° 0 mm 1 mps 750 mmHg 68%
    09:00 +12°C° 0 mm 1 mps 750 mmHg 61%
    10:00 +14°C° 0 mm 2 mps 750 mmHg 55%
    11:00 +15°C° 0 mm 2 mps 750 mmHg 50%
    12:00 +17°C° 0 mm 2 mps 749 mmHg 44%
    13:00 +18°C° 0 mm 2 mps 749 mmHg 41%
    14:00 +19°C° 0 mm 2 mps 749 mmHg 38%
    15:00 +20°C° 0 mm 2 mps 748 mmHg 35%
    16:00 +19°C° 0 mm 2 mps 749 mmHg 38%
    17:00 +18°C° 0 mm 3 mps 749 mmHg 42%
    18:00 +18°C° 0 mm 3 mps 750 mmHg 46%
    19:00 +17°C° 0 mm 3 mps 750 mmHg 50%
    20:00 +16°C° 0 mm 3 mps 751 mmHg 55%
    21:00 +14°C° 0 mm 3 mps 752 mmHg 60%
    22:00 +14°C° 0 mm 2 mps 752 mmHg 65%
    23:00 +13°C° 0 mm 2 mps 752 mmHg 69%

    28 March, Thursday

    Time Temperature Precipitation Wind Pressure Humidity
    00:00 +12°C° 0 mm 2 mps 752 mmHg 74%
    01:00 +12°C° 0 mm 1 mps 752 mmHg 77%
    02:00 +11°C° 0 mm 1 mps 752 mmHg 80%
    03:00 +10°C° 0 mm 0 mps 753 mmHg 83%
    04:00 +10°C° 0 mm 0 mps 753 mmHg 83%
    05:00 +9°C° 0 mm 0 mps 753 mmHg 82%
    06:00 +10°C° 0 mm 1 mps 754 mmHg 81%
    07:00 +12°C° 0 mm 1 mps 754 mmHg 73%
    08:00 +13°C° 0 mm 1 mps 754 mmHg 65%
    09:00 +14°C° 0 mm 1 mps 754 mmHg 57%
    10:00 +15°C° 0.1 mm 1 mps 754 mmHg 57%
    11:00 +15°C° 0.1 mm 1 mps 754 mmHg 56%
    12:00 +15°C° 0.1 mm 2 mps 754 mmHg 56%
    13:00 +15°C° 0.1 mm 2 mps 754 mmHg 60%
    14:00 +14°C° 0.1 mm 3 mps 754 mmHg 64%
    15:00 +13°C° 0.1 mm 3 mps 753 mmHg 68%
    16:00 +13°C° 0.8 mm 3 mps 754 mmHg 74%
    17:00 +12°C° 0.8 mm 3 mps 754 mmHg 79%
    18:00 +11°C° 0.8 mm 3 mps 754 mmHg 85%
    19:00 +10°C° 1.2 mm 3 mps 755 mmHg 83%
    20:00 +10°C° 1.2 mm 4 mps 755 mmHg 81%
    21:00 +10°C° 1.2 mm 4 mps 755 mmHg 79%
    22:00 +8°C° 0.3 mm 4 mps 755 mmHg 76%
    23:00 +8°C° 0.3 mm 5 mps 755 mmHg 74%

    29 March, Friday

    Time Temperature Precipitation Wind Pressure Humidity
    00:00 +7°C° 0.3 mm 5 mps 755 mmHg 71%
    01:00 +7°C° 0.3 mm 5 mps 755 mmHg 72%
    02:00 +6°C° 0.3 mm 5 mps 755 mmHg 74%
    03:00 +6°C° 0.3 mm 4 mps 756 mmHg 75%
    04:00 +6°C° 0.7 mm 4 mps 756 mmHg 77%
    05:00 +7°C° 0.7 mm 3 mps 756 mmHg 78%
    06:00 +5°C° 0.7 mm 3 mps 757 mmHg 80%
    07:00 +5°C° 0.3 mm 3 mps 757 mmHg 79%
    08:00 +7°C° 0.3 mm 3 mps 757 mmHg 79%
    09:00 +6°C° 0.3 mm 4 mps 757 mmHg 78%
    10:00 +6°C° 0 mm 4 mps 757 mmHg 76%
    11:00 +7°C° 0 mm 4 mps 756 mmHg 73%
    12:00 +8°C° 0 mm 4 mps 756 mmHg 71%
    13:00 +8°C° 0 mm 4 mps 755 mmHg 70%
    14:00 +8°C° 0 mm 4 mps 755 mmHg 69%
    15:00 +8°C° 0 mm 4 mps 754 mmHg 68%
    16:00 +8°C° 0 mm 4 mps 755 mmHg 70%
    17:00 +8°C° 0 mm 4 mps 755 mmHg 72%
    18:00 +9°C° 0 mm 3 mps 755 mmHg 74%
    19:00 +8°C° 0 mm 3 mps 755 mmHg 76%
    20:00 +8°C° 0 mm 3 mps 755 mmHg 78%
    21:00 +8°C° 0 mm 3 mps 756 mmHg 80%
    22:00 +8°C° 0 mm 3 mps 755 mmHg 82%
    23:00 +7°C° 0 mm 3 mps 755 mmHg 83%
    Show more